Year,Month,Day,Hour,Minute,Value (Times are PST for windspeed in km/hr)
2014,02,13,00,00,22.90
2014,02,13,00,01,21.30
2014,02,13,00,02,21.70
2014,02,13,00,03,22.10
2014,02,13,00,04,22.30
2014,02,13,00,05,20.80
2014,02,13,00,06,20.10
2014,02,13,00,07,21.20
2014,02,13,00,08,13.60
2014,02,13,00,09,17.30
2014,02,13,00,10,13.30
2014,02,13,00,11,13.90
2014,02,13,00,12,11.80
2014,02,13,00,13,6.40
2014,02,13,00,14,6.40
2014,02,13,00,15,6.70
2014,02,13,00,16,9.60
2014,02,13,00,17,10.10
2014,02,13,00,18,5.10
2014,02,13,00,19,4.60
2014,02,13,00,20,6.90
2014,02,13,00,21,8.80
2014,02,13,00,22,5.80
2014,02,13,00,23,6.60
2014,02,13,00,24,9.10
2014,02,13,00,25,10.00
2014,02,13,00,26,10.40
2014,02,13,00,27,10.20
2014,02,13,00,28,12.60
2014,02,13,00,29,11.00
2014,02,13,00,30,8.10
2014,02,13,00,31,5.30
2014,02,13,00,32,7.30
2014,02,13,00,33,3.90
2014,02,13,00,34,5.20
2014,02,13,00,35,5.40
2014,02,13,00,36,5.90
2014,02,13,00,37,9.10
2014,02,13,00,38,4.60
2014,02,13,00,39,5.50
2014,02,13,00,40,6.50
2014,02,13,00,41,6.30
2014,02,13,00,42,5.40
2014,02,13,00,43,7.10
2014,02,13,00,44,7.70
2014,02,13,00,45,6.10
2014,02,13,00,46,4.50
2014,02,13,00,47,1.60
2014,02,13,00,48,5.40
2014,02,13,00,49,8.00
2014,02,13,00,50,9.40
2014,02,13,00,51,8.90
2014,02,13,00,52,5.60
2014,02,13,00,53,7.30
2014,02,13,00,54,5.30
2014,02,13,00,55,7.70
2014,02,13,00,56,6.60
2014,02,13,00,57,4.10
2014,02,13,00,58,6.80
2014,02,13,00,59,9.20
2014,02,13,01,00,7.10
2014,02,13,01,01,7.20
2014,02,13,01,02,7.10
2014,02,13,01,03,7.10
2014,02,13,01,04,4.90
2014,02,13,01,05,3.80
2014,02,13,01,06,5.00
2014,02,13,01,07,5.50
2014,02,13,01,08,4.20
2014,02,13,01,09,4.00
2014,02,13,01,10,3.60
2014,02,13,01,11,4.30
2014,02,13,01,12,4.50
2014,02,13,01,13,7.10
2014,02,13,01,14,7.10
2014,02,13,01,15,11.00
2014,02,13,01,16,10.70
2014,02,13,01,17,8.30
2014,02,13,01,18,6.20
2014,02,13,01,19,6.70
2014,02,13,01,20,5.30
2014,02,13,01,21,5.50
2014,02,13,01,22,4.50
2014,02,13,01,23,2.10
2014,02,13,01,24,2.60
2014,02,13,01,25,7.60
2014,02,13,01,26,6.40
2014,02,13,01,27,5.60
2014,02,13,01,28,4.70
2014,02,13,01,29,5.90
2014,02,13,01,30,4.70
2014,02,13,01,31,5.10
2014,02,13,01,32,4.80
2014,02,13,01,33,5.00
2014,02,13,01,34,6.40
2014,02,13,01,35,8.30
2014,02,13,01,36,7.30
2014,02,13,01,37,2.90
2014,02,13,01,38,6.00
2014,02,13,01,39,10.50
2014,02,13,01,40,10.00
2014,02,13,01,41,8.80
2014,02,13,01,42,6.10
2014,02,13,01,43,4.90
2014,02,13,01,44,9.70
2014,02,13,01,45,10.90
2014,02,13,01,46,11.10
2014,02,13,01,47,8.50
2014,02,13,01,48,12.30
2014,02,13,01,49,5.30
2014,02,13,01,50,3.40
2014,02,13,01,51,4.70
2014,02,13,01,52,4.80
2014,02,13,01,53,5.80
2014,02,13,01,54,4.60
2014,02,13,01,55,1.40
2014,02,13,01,56,3.00
2014,02,13,01,57,0.10
2014,02,13,01,58,0.20
2014,02,13,01,59,0.80
2014,02,13,02,00,0.20
2014,02,13,02,01,1.00
2014,02,13,02,02,2.70
2014,02,13,02,03,3.40
2014,02,13,02,04,4.00
2014,02,13,02,05,2.30
2014,02,13,02,06,0.70
2014,02,13,02,07,0.00
2014,02,13,02,08,1.80
2014,02,13,02,09,3.30
2014,02,13,02,10,5.60
2014,02,13,02,11,7.70
2014,02,13,02,12,3.10
2014,02,13,02,13,2.10
2014,02,13,02,14,5.70
2014,02,13,02,15,2.90
2014,02,13,02,16,4.30
2014,02,13,02,17,7.50
2014,02,13,02,18,3.10
2014,02,13,02,19,2.60
2014,02,13,02,20,8.20
2014,02,13,02,21,9.90
2014,02,13,02,22,6.40
2014,02,13,02,23,6.60
2014,02,13,02,24,4.00
2014,02,13,02,25,3.60
2014,02,13,02,26,5.10
2014,02,13,02,27,5.10
2014,02,13,02,28,5.00
2014,02,13,02,29,3.10
2014,02,13,02,30,1.90
2014,02,13,02,31,2.70
2014,02,13,02,32,5.70
2014,02,13,02,33,5.00
2014,02,13,02,34,4.80
2014,02,13,02,35,5.20
2014,02,13,02,36,4.70
2014,02,13,02,37,1.90
2014,02,13,02,38,2.60
2014,02,13,02,39,2.00
2014,02,13,02,40,2.50
2014,02,13,02,41,2.10
2014,02,13,02,42,4.90
2014,02,13,02,43,4.70
2014,02,13,02,44,6.20
2014,02,13,02,45,5.60
2014,02,13,02,46,5.00
2014,02,13,02,47,7.80
2014,02,13,02,48,8.10
2014,02,13,02,49,5.50
2014,02,13,02,50,5.60
2014,02,13,02,51,6.70
2014,02,13,02,52,4.00
2014,02,13,02,53,4.00
2014,02,13,02,54,2.50
2014,02,13,02,55,1.90
2014,02,13,02,56,1.50
2014,02,13,02,57,1.90
2014,02,13,02,58,1.90
2014,02,13,02,59,0.40
2014,02,13,03,00,0.00
2014,02,13,03,01,0.40
2014,02,13,03,02,2.20
2014,02,13,03,03,3.70
2014,02,13,03,04,2.60
2014,02,13,03,05,5.40
2014,02,13,03,06,6.30
2014,02,13,03,07,3.00
2014,02,13,03,08,4.20
2014,02,13,03,09,4.30
2014,02,13,03,10,4.50
2014,02,13,03,11,6.20
2014,02,13,03,12,5.90
2014,02,13,03,13,4.10
2014,02,13,03,14,2.80
2014,02,13,03,15,3.10
2014,02,13,03,16,1.30
2014,02,13,03,17,2.80
2014,02,13,03,18,0.40
2014,02,13,03,19,0.60
2014,02,13,03,20,1.80
2014,02,13,03,21,1.90
2014,02,13,03,22,1.80
2014,02,13,03,23,2.70
2014,02,13,03,24,3.60
2014,02,13,03,25,5.30
2014,02,13,03,26,5.40
2014,02,13,03,27,3.00
2014,02,13,03,28,0.40
2014,02,13,03,29,1.30
2014,02,13,03,30,1.80
2014,02,13,03,31,2.30
2014,02,13,03,32,0.60
2014,02,13,03,33,1.10
2014,02,13,03,34,1.00
2014,02,13,03,35,1.70
2014,02,13,03,36,1.50
2014,02,13,03,37,2.80
2014,02,13,03,38,2.50
2014,02,13,03,39,1.20
2014,02,13,03,40,0.10
2014,02,13,03,41,1.70
2014,02,13,03,42,5.90
2014,02,13,03,43,3.70
2014,02,13,03,44,3.90
2014,02,13,03,45,5.30
2014,02,13,03,46,5.80
2014,02,13,03,47,3.90
2014,02,13,03,48,5.00
2014,02,13,03,49,5.10
2014,02,13,03,50,4.70
2014,02,13,03,51,3.90
2014,02,13,03,52,5.30
2014,02,13,03,53,7.00
2014,02,13,03,54,6.00
2014,02,13,03,55,9.00
2014,02,13,03,56,13.20
2014,02,13,03,57,14.90
2014,02,13,03,58,13.50
2014,02,13,03,59,14.80
2014,02,13,04,00,12.00
2014,02,13,04,01,14.00
2014,02,13,04,02,12.70
2014,02,13,04,03,13.60
2014,02,13,04,04,17.60
2014,02,13,04,05,8.80
2014,02,13,04,06,6.30
2014,02,13,04,07,7.40
2014,02,13,04,08,3.50
2014,02,13,04,09,5.10
2014,02,13,04,10,11.00
2014,02,13,04,11,19.90
2014,02,13,04,12,8.60
2014,02,13,04,13,6.00
2014,02,13,04,14,7.20
2014,02,13,04,15,12.70
2014,02,13,04,16,11.20
2014,02,13,04,17,7.00
2014,02,13,04,18,5.10
2014,02,13,04,19,5.70
2014,02,13,04,20,6.30
2014,02,13,04,21,11.00
2014,02,13,04,22,13.00
2014,02,13,04,23,7.80
2014,02,13,04,24,8.60
2014,02,13,04,25,6.20
2014,02,13,04,26,4.10
2014,02,13,04,27,5.20
2014,02,13,04,28,4.40
2014,02,13,04,29,2.30
2014,02,13,04,30,6.70
2014,02,13,04,31,5.20
2014,02,13,04,32,5.60
2014,02,13,04,33,5.50
2014,02,13,04,34,8.60
2014,02,13,04,35,6.20
2014,02,13,04,36,7.10
2014,02,13,04,37,6.00
2014,02,13,04,38,4.00
2014,02,13,04,39,8.70
2014,02,13,04,40,7.40
2014,02,13,04,41,4.00
2014,02,13,04,42,3.70
2014,02,13,04,43,5.10
2014,02,13,04,44,0.20
2014,02,13,04,45,1.30
2014,02,13,04,46,2.10
2014,02,13,04,47,0.50
2014,02,13,04,48,0.00
2014,02,13,04,49,0.00
2014,02,13,04,50,0.00
2014,02,13,04,51,1.20
2014,02,13,04,52,8.30
2014,02,13,04,53,6.10
2014,02,13,04,54,5.10
2014,02,13,04,55,4.00
2014,02,13,04,56,1.80
2014,02,13,04,57,1.70
2014,02,13,04,58,8.70
2014,02,13,04,59,5.50
2014,02,13,05,00,11.00
2014,02,13,05,01,7.80
2014,02,13,05,02,4.80
2014,02,13,05,03,10.90
2014,02,13,05,04,11.30
2014,02,13,05,05,12.10
2014,02,13,05,06,15.10
2014,02,13,05,07,17.60
2014,02,13,05,08,12.20
2014,02,13,05,09,15.00
2014,02,13,05,10,12.70
2014,02,13,05,11,10.70
2014,02,13,05,12,15.20
2014,02,13,05,13,11.20
2014,02,13,05,14,16.00
2014,02,13,05,15,14.60
2014,02,13,05,16,16.00
2014,02,13,05,17,13.80
2014,02,13,05,18,8.10
2014,02,13,05,19,8.90
2014,02,13,05,20,3.00
2014,02,13,05,21,2.80
2014,02,13,05,22,5.40
2014,02,13,05,23,1.40
2014,02,13,05,24,0.10
2014,02,13,05,25,1.80
2014,02,13,05,26,5.90
2014,02,13,05,27,6.10
2014,02,13,05,28,7.30
2014,02,13,05,29,6.40
2014,02,13,05,30,4.70
2014,02,13,05,31,6.40
2014,02,13,05,32,6.40
2014,02,13,05,33,7.00
2014,02,13,05,34,6.60
2014,02,13,05,35,6.30
2014,02,13,05,36,2.50
2014,02,13,05,37,2.80
2014,02,13,05,38,4.00
2014,02,13,05,39,6.10
2014,02,13,05,40,5.90
2014,02,13,05,41,6.40
2014,02,13,05,42,4.90
2014,02,13,05,43,5.70
2014,02,13,05,44,7.10
2014,02,13,05,45,5.90
2014,02,13,05,46,4.80
2014,02,13,05,47,5.70
2014,02,13,05,48,5.30
2014,02,13,05,49,4.40
2014,02,13,05,50,6.00
2014,02,13,05,51,4.10
2014,02,13,05,52,4.20
2014,02,13,05,53,6.10
2014,02,13,05,54,4.50
2014,02,13,05,55,4.20
2014,02,13,05,56,4.30
2014,02,13,05,57,5.70
2014,02,13,05,58,6.20
2014,02,13,05,59,4.70
2014,02,13,06,00,4.80
2014,02,13,06,01,4.80
2014,02,13,06,02,5.60
2014,02,13,06,03,6.20
2014,02,13,06,04,5.40
2014,02,13,06,05,3.00
2014,02,13,06,06,5.10
2014,02,13,06,07,4.80
2014,02,13,06,08,6.70
2014,02,13,06,09,7.10
2014,02,13,06,10,7.40
2014,02,13,06,11,7.10
2014,02,13,06,12,6.10
2014,02,13,06,13,9.80
2014,02,13,06,14,6.10
2014,02,13,06,15,5.10
2014,02,13,06,16,6.80
2014,02,13,06,17,5.00
2014,02,13,06,18,3.80
2014,02,13,06,19,3.70
2014,02,13,06,20,3.10
2014,02,13,06,21,1.80
2014,02,13,06,22,0.60
2014,02,13,06,23,0.70
2014,02,13,06,24,0.60
2014,02,13,06,25,3.30
2014,02,13,06,26,3.50
2014,02,13,06,27,2.50
2014,02,13,06,28,1.40
2014,02,13,06,29,2.20
2014,02,13,06,30,1.90
2014,02,13,06,31,2.90
2014,02,13,06,32,0.70
2014,02,13,06,33,1.80
2014,02,13,06,34,0.30
2014,02,13,06,35,1.10
2014,02,13,06,36,0.10
2014,02,13,06,37,0.50
2014,02,13,06,38,2.60
2014,02,13,06,39,3.00
2014,02,13,06,40,4.60
2014,02,13,06,41,4.40
2014,02,13,06,42,5.00
2014,02,13,06,43,6.80
2014,02,13,06,44,6.00
2014,02,13,06,45,6.50
2014,02,13,06,46,7.10
2014,02,13,06,47,4.80
2014,02,13,06,48,7.70
2014,02,13,06,49,10.10
2014,02,13,06,50,6.00
2014,02,13,06,51,4.50
2014,02,13,06,52,4.40
2014,02,13,06,53,5.40
2014,02,13,06,54,4.60
2014,02,13,06,55,2.60
2014,02,13,06,56,1.50
2014,02,13,06,57,3.00
2014,02,13,06,58,3.40
2014,02,13,06,59,2.80
2014,02,13,07,00,2.10
2014,02,13,07,01,1.30
2014,02,13,07,02,1.90
2014,02,13,07,03,5.70
2014,02,13,07,04,6.70
2014,02,13,07,05,4.40
2014,02,13,07,06,5.30
2014,02,13,07,07,4.60
2014,02,13,07,08,3.70
2014,02,13,07,09,5.00
2014,02,13,07,10,6.10
2014,02,13,07,11,2.30
2014,02,13,07,12,4.10
2014,02,13,07,13,7.80
2014,02,13,07,14,8.70
2014,02,13,07,15,8.00
2014,02,13,07,16,8.90
2014,02,13,07,17,10.70
2014,02,13,07,18,3.10
2014,02,13,07,19,1.80
2014,02,13,07,20,3.20
2014,02,13,07,21,7.40
2014,02,13,07,22,6.50
2014,02,13,07,23,3.60
2014,02,13,07,24,2.60
2014,02,13,07,25,3.90
2014,02,13,07,26,6.80
2014,02,13,07,27,5.50
2014,02,13,07,28,5.00
2014,02,13,07,29,6.70
2014,02,13,07,30,5.40
2014,02,13,07,31,7.90
2014,02,13,07,32,6.80
2014,02,13,07,33,8.80
2014,02,13,07,34,6.80
2014,02,13,07,35,5.90
2014,02,13,07,36,4.60
2014,02,13,07,37,5.40
2014,02,13,07,38,5.20
2014,02,13,07,39,5.30
2014,02,13,07,40,7.00
2014,02,13,07,41,6.00
2014,02,13,07,42,6.10
2014,02,13,07,43,5.10
2014,02,13,07,44,3.40
2014,02,13,07,45,4.20
2014,02,13,07,46,4.60
2014,02,13,07,47,4.30
2014,02,13,07,48,4.90
2014,02,13,07,49,3.80
2014,02,13,07,50,5.40
2014,02,13,07,51,7.50
2014,02,13,07,52,4.50
2014,02,13,07,53,1.80
2014,02,13,07,54,2.50
2014,02,13,07,55,8.50
2014,02,13,07,56,7.70
2014,02,13,07,57,6.50
2014,02,13,07,58,5.30
2014,02,13,07,59,2.30
2014,02,13,08,00,2.30
2014,02,13,08,01,0.10
2014,02,13,08,02,5.10
2014,02,13,08,03,6.40
2014,02,13,08,04,8.20
2014,02,13,08,05,9.90
2014,02,13,08,06,9.60
2014,02,13,08,07,5.40
2014,02,13,08,08,9.50
2014,02,13,08,09,11.40
2014,02,13,08,10,15.60
2014,02,13,08,11,14.40
2014,02,13,08,12,15.80
2014,02,13,08,13,19.60
2014,02,13,08,14,22.20
2014,02,13,08,15,18.00
2014,02,13,08,16,25.00
2014,02,13,08,17,26.20
2014,02,13,08,18,26.50
2014,02,13,08,19,30.90
2014,02,13,08,20,31.60
2014,02,13,08,21,26.90
2014,02,13,08,22,21.00
2014,02,13,08,23,25.50
2014,02,13,08,24,23.90
2014,02,13,08,25,21.50
2014,02,13,08,26,23.40
2014,02,13,08,27,19.00
2014,02,13,08,28,19.50
2014,02,13,08,29,18.20
2014,02,13,08,30,17.90
2014,02,13,08,31,18.00
2014,02,13,08,32,16.20
2014,02,13,08,33,20.00
2014,02,13,08,34,18.10
2014,02,13,08,35,17.80
2014,02,13,08,36,18.80
2014,02,13,08,37,18.40
2014,02,13,08,38,17.60
2014,02,13,08,39,12.40
2014,02,13,08,40,14.30
2014,02,13,08,41,9.10
2014,02,13,08,42,8.10
2014,02,13,08,43,3.30
2014,02,13,08,44,1.60
2014,02,13,08,45,0.70
2014,02,13,08,46,0.40
2014,02,13,08,47,1.90
2014,02,13,08,48,0.50
2014,02,13,08,49,0.30
2014,02,13,08,50,5.30
2014,02,13,08,51,6.10
2014,02,13,08,52,3.60
2014,02,13,08,53,1.80
2014,02,13,08,54,0.80
2014,02,13,08,55,2.50
2014,02,13,08,56,4.00
2014,02,13,08,57,4.40
2014,02,13,08,58,2.70
2014,02,13,08,59,4.00
2014,02,13,09,00,3.30
2014,02,13,09,01,3.40
2014,02,13,09,02,1.80
2014,02,13,09,03,2.90
2014,02,13,09,04,2.50
2014,02,13,09,05,2.80
2014,02,13,09,06,3.10
2014,02,13,09,07,2.70
2014,02,13,09,08,4.20
2014,02,13,09,09,3.90
2014,02,13,09,10,2.40
2014,02,13,09,11,0.50
2014,02,13,09,12,0.80
2014,02,13,09,13,1.50
2014,02,13,09,14,0.80
2014,02,13,09,15,1.30
2014,02,13,09,16,0.50
2014,02,13,09,17,0.10
2014,02,13,09,18,0.40
2014,02,13,09,19,1.50
2014,02,13,09,20,2.40
2014,02,13,09,21,0.60
2014,02,13,09,22,5.20
2014,02,13,09,23,3.90
2014,02,13,09,24,7.20
2014,02,13,09,25,8.60
2014,02,13,09,26,7.90
2014,02,13,09,27,8.10
2014,02,13,09,28,7.20
2014,02,13,09,29,11.20
2014,02,13,09,30,8.90
2014,02,13,09,31,10.00
2014,02,13,09,32,9.30
2014,02,13,09,33,8.00
2014,02,13,09,34,8.80
2014,02,13,09,35,5.90
2014,02,13,09,36,8.00
2014,02,13,09,37,8.70
2014,02,13,09,38,10.50
2014,02,13,09,39,11.50
2014,02,13,09,40,9.10
2014,02,13,09,41,10.60
2014,02,13,09,42,9.40
2014,02,13,09,43,8.10
2014,02,13,09,44,7.60
2014,02,13,09,45,8.70
2014,02,13,09,46,6.50
2014,02,13,09,47,4.10
2014,02,13,09,48,8.30
2014,02,13,09,49,9.70
2014,02,13,09,50,10.30
2014,02,13,09,51,6.90
2014,02,13,09,52,5.40
2014,02,13,09,53,4.90
2014,02,13,09,54,5.10
2014,02,13,09,55,5.60
2014,02,13,09,56,5.60
2014,02,13,09,57,5.60
2014,02,13,09,58,5.50
2014,02,13,09,59,7.80
2014,02,13,10,00,7.60
2014,02,13,10,01,9.50
2014,02,13,10,02,7.30
2014,02,13,10,03,5.20
2014,02,13,10,04,4.70
2014,02,13,10,05,5.90
2014,02,13,10,06,6.00
2014,02,13,10,07,6.10
2014,02,13,10,08,5.60
2014,02,13,10,09,6.30
2014,02,13,10,10,4.30
2014,02,13,10,11,4.00
2014,02,13,10,12,1.20
2014,02,13,10,13,2.30
2014,02,13,10,14,4.60
2014,02,13,10,15,6.40
2014,02,13,10,16,6.20
2014,02,13,10,17,5.20
2014,02,13,10,18,6.10
2014,02,13,10,19,5.10
2014,02,13,10,20,4.20
2014,02,13,10,21,4.00
2014,02,13,10,22,2.10
2014,02,13,10,23,0.10
2014,02,13,10,24,0.70
2014,02,13,10,25,2.10
2014,02,13,10,26,5.10
2014,02,13,10,27,7.90
2014,02,13,10,28,4.80
2014,02,13,10,29,1.80
2014,02,13,10,30,4.00
2014,02,13,10,31,4.30
2014,02,13,10,32,3.90
2014,02,13,10,33,4.90
2014,02,13,10,34,1.80
2014,02,13,10,35,0.80
2014,02,13,10,36,2.80
2014,02,13,10,37,1.90
2014,02,13,10,38,0.70
2014,02,13,10,39,0.50
2014,02,13,10,40,0.60
2014,02,13,10,41,2.10
2014,02,13,10,42,2.70
2014,02,13,10,43,2.00
2014,02,13,10,44,4.80
2014,02,13,10,45,4.10
2014,02,13,10,46,1.80
2014,02,13,10,47,6.30
2014,02,13,10,48,4.60
2014,02,13,10,49,4.70
2014,02,13,10,50,3.70
2014,02,13,10,51,3.40
2014,02,13,10,52,5.40
2014,02,13,10,53,10.10
2014,02,13,10,54,10.70
2014,02,13,10,55,14.00
2014,02,13,10,56,9.00
2014,02,13,10,57,13.50
2014,02,13,10,58,11.20
2014,02,13,10,59,8.60
2014,02,13,11,00,11.70
2014,02,13,11,01,12.50
2014,02,13,11,02,13.00
2014,02,13,11,03,14.10
2014,02,13,11,04,11.80
2014,02,13,11,05,17.40
2014,02,13,11,06,15.00
2014,02,13,11,07,11.90
2014,02,13,11,08,9.80
2014,02,13,11,09,13.40
2014,02,13,11,10,12.50
2014,02,13,11,11,11.80
2014,02,13,11,12,13.30
2014,02,13,11,13,13.40
2014,02,13,11,14,17.30
2014,02,13,11,15,19.80
2014,02,13,11,16,18.10
2014,02,13,11,17,20.40
2014,02,13,11,18,20.80
2014,02,13,11,19,22.70
2014,02,13,11,20,20.20
2014,02,13,11,21,16.70
2014,02,13,11,22,16.30
2014,02,13,11,23,14.60
2014,02,13,11,24,18.50
2014,02,13,11,25,19.00
2014,02,13,11,26,20.00
2014,02,13,11,27,17.80
2014,02,13,11,28,21.70
2014,02,13,11,29,17.00
2014,02,13,11,30,17.20
2014,02,13,11,31,12.90
2014,02,13,11,32,16.00
2014,02,13,11,33,20.20
2014,02,13,11,34,18.60
2014,02,13,11,35,15.10
2014,02,13,11,36,12.70
2014,02,13,11,37,13.90
2014,02,13,11,38,13.40
2014,02,13,11,39,20.60
2014,02,13,11,40,20.50
2014,02,13,11,41,19.20
2014,02,13,11,42,14.20
2014,02,13,11,43,11.30
2014,02,13,11,44,16.20
2014,02,13,11,45,16.90
2014,02,13,11,46,25.40
2014,02,13,11,47,18.80
2014,02,13,11,48,21.20
2014,02,13,11,49,19.70
2014,02,13,11,50,18.40
2014,02,13,11,51,11.40
2014,02,13,11,52,15.70
2014,02,13,11,53,17.30
2014,02,13,11,54,19.10
2014,02,13,11,55,18.30
2014,02,13,11,56,20.30
2014,02,13,11,57,17.50
2014,02,13,11,58,12.60
2014,02,13,11,59,15.20
2014,02,13,12,00,19.40
2014,02,13,12,01,14.90
2014,02,13,12,02,17.20
2014,02,13,12,03,15.90
2014,02,13,12,04,18.20
2014,02,13,12,05,18.30
2014,02,13,12,06,16.50
2014,02,13,12,07,18.20
2014,02,13,12,08,15.20
2014,02,13,12,09,13.30
2014,02,13,12,10,11.60
2014,02,13,12,11,11.40
2014,02,13,12,12,9.40
2014,02,13,12,13,8.10
2014,02,13,12,14,5.30
2014,02,13,12,15,7.40
2014,02,13,12,16,4.70
2014,02,13,12,17,8.20
2014,02,13,12,18,5.20
2014,02,13,12,19,3.40
2014,02,13,12,20,5.20
2014,02,13,12,21,5.20
2014,02,13,12,22,2.70
2014,02,13,12,23,6.50
2014,02,13,12,24,7.00
2014,02,13,12,25,10.90
2014,02,13,12,26,11.10
2014,02,13,12,27,9.70
2014,02,13,12,28,12.10
2014,02,13,12,29,11.80
2014,02,13,12,30,10.70
2014,02,13,12,31,9.00
2014,02,13,12,32,10.80
2014,02,13,12,33,15.70
2014,02,13,12,34,16.00
2014,02,13,12,35,13.40
2014,02,13,12,36,12.50
2014,02,13,12,37,8.10
2014,02,13,12,38,10.10
2014,02,13,12,39,10.00
2014,02,13,12,40,10.00
2014,02,13,12,41,15.80
2014,02,13,12,42,13.60
2014,02,13,12,43,17.50
2014,02,13,12,44,11.50
2014,02,13,12,45,15.40
2014,02,13,12,46,16.90
2014,02,13,12,47,12.60
2014,02,13,12,48,12.70
2014,02,13,12,49,10.30
2014,02,13,12,50,15.10
2014,02,13,12,51,18.90
2014,02,13,12,52,13.20
2014,02,13,12,53,13.70
2014,02,13,12,54,14.20
2014,02,13,12,55,11.90
2014,02,13,12,56,12.20
2014,02,13,12,57,13.40
2014,02,13,12,58,12.70
2014,02,13,12,59,8.30
2014,02,13,13,00,6.60
2014,02,13,13,01,11.10
2014,02,13,13,02,7.30
2014,02,13,13,03,12.80
2014,02,13,13,04,9.50
2014,02,13,13,05,6.50
2014,02,13,13,06,8.20
2014,02,13,13,07,7.20
2014,02,13,13,08,9.50
2014,02,13,13,09,7.90
2014,02,13,13,10,6.40
2014,02,13,13,11,9.70
2014,02,13,13,12,6.80
2014,02,13,13,13,3.40
2014,02,13,13,14,3.90
2014,02,13,13,15,8.30
2014,02,13,13,16,3.40
2014,02,13,13,17,3.80
2014,02,13,13,18,6.80
2014,02,13,13,19,8.30
2014,02,13,13,20,5.30
2014,02,13,13,21,5.20
2014,02,13,13,22,1.50
2014,02,13,13,23,4.70
2014,02,13,13,24,4.90
2014,02,13,13,25,8.70
2014,02,13,13,26,7.20
2014,02,13,13,27,18.20
2014,02,13,13,28,18.70
2014,02,13,13,29,13.40
2014,02,13,13,30,12.60
2014,02,13,13,31,13.80
2014,02,13,13,32,11.20
2014,02,13,13,33,12.70
2014,02,13,13,34,15.30
2014,02,13,13,35,12.20
2014,02,13,13,36,17.60
2014,02,13,13,37,15.40
2014,02,13,13,38,19.40
2014,02,13,13,39,19.30
2014,02,13,13,40,19.50
2014,02,13,13,41,15.90
2014,02,13,13,42,15.40
2014,02,13,13,43,18.10
2014,02,13,13,44,16.00
2014,02,13,13,45,17.70
2014,02,13,13,46,16.20
2014,02,13,13,47,12.40
2014,02,13,13,48,11.20
2014,02,13,13,49,9.80
2014,02,13,13,50,5.30
2014,02,13,13,51,7.50
2014,02,13,13,52,7.60
2014,02,13,13,53,7.10
2014,02,13,13,54,8.90
2014,02,13,13,55,8.70
2014,02,13,13,56,10.30
2014,02,13,13,57,14.90
2014,02,13,13,58,10.90
2014,02,13,13,59,10.30
2014,02,13,14,00,8.40
2014,02,13,14,01,6.60
2014,02,13,14,02,10.60
2014,02,13,14,03,12.10
2014,02,13,14,04,12.40
2014,02,13,14,05,15.00
2014,02,13,14,06,13.50
2014,02,13,14,07,9.70
2014,02,13,14,08,11.20
2014,02,13,14,09,7.70
2014,02,13,14,10,10.00
2014,02,13,14,11,8.50
2014,02,13,14,12,7.10
2014,02,13,14,13,7.70
2014,02,13,14,14,9.00
2014,02,13,14,15,8.10
2014,02,13,14,16,9.10
2014,02,13,14,17,13.30
2014,02,13,14,18,11.90
2014,02,13,14,19,12.60
2014,02,13,14,20,10.40
2014,02,13,14,21,7.30
2014,02,13,14,22,7.40
2014,02,13,14,23,10.70
2014,02,13,14,24,4.70
2014,02,13,14,25,4.10
2014,02,13,14,26,3.90
2014,02,13,14,27,5.90
2014,02,13,14,28,8.40
2014,02,13,14,29,16.80
2014,02,13,14,30,14.30
2014,02,13,14,31,20.60
2014,02,13,14,32,20.10
2014,02,13,14,33,20.30
2014,02,13,14,34,15.40
2014,02,13,14,35,17.90
2014,02,13,14,36,14.30
2014,02,13,14,37,19.50
2014,02,13,14,38,12.50
2014,02,13,14,39,18.20
2014,02,13,14,40,16.10
2014,02,13,14,41,15.10
2014,02,13,14,42,16.20
2014,02,13,14,43,15.10
2014,02,13,14,44,15.80
2014,02,13,14,45,9.70
2014,02,13,14,46,14.00
2014,02,13,14,47,13.40
2014,02,13,14,48,9.20
2014,02,13,14,49,9.30
2014,02,13,14,50,7.10
2014,02,13,14,51,2.70
2014,02,13,14,52,5.60
2014,02,13,14,53,5.10
2014,02,13,14,54,8.10
2014,02,13,14,55,9.40
2014,02,13,14,56,6.90
2014,02,13,14,57,4.60
2014,02,13,14,58,5.90
2014,02,13,14,59,9.90
2014,02,13,15,00,7.50
2014,02,13,15,01,5.10
2014,02,13,15,02,4.40
2014,02,13,15,03,7.10
2014,02,13,15,04,5.40
2014,02,13,15,05,2.80
2014,02,13,15,06,5.50
2014,02,13,15,07,4.10
2014,02,13,15,08,6.30
2014,02,13,15,09,4.30
2014,02,13,15,10,5.50
2014,02,13,15,11,4.60
2014,02,13,15,12,4.40
2014,02,13,15,13,6.70
2014,02,13,15,14,5.10
2014,02,13,15,15,5.50
2014,02,13,15,16,4.70
2014,02,13,15,17,0.60
2014,02,13,15,18,1.90
2014,02,13,15,19,2.70
2014,02,13,15,20,4.70
2014,02,13,15,21,6.70
2014,02,13,15,22,10.30
2014,02,13,15,23,5.70
2014,02,13,15,24,3.50
2014,02,13,15,25,4.00
2014,02,13,15,26,3.50
2014,02,13,15,27,8.20
2014,02,13,15,28,7.80
2014,02,13,15,29,5.00
2014,02,13,15,30,4.60
2014,02,13,15,31,4.70
2014,02,13,15,32,5.60
2014,02,13,15,33,2.80
2014,02,13,15,34,4.70
2014,02,13,15,35,13.00
2014,02,13,15,36,16.30
2014,02,13,15,37,15.70
2014,02,13,15,38,17.50
2014,02,13,15,39,19.40
2014,02,13,15,40,21.10
2014,02,13,15,41,13.90
2014,02,13,15,42,17.80
2014,02,13,15,43,18.30
2014,02,13,15,44,21.90
2014,02,13,15,45,21.00
2014,02,13,15,46,18.80
2014,02,13,15,47,18.60
2014,02,13,15,48,16.70
2014,02,13,15,49,15.70
2014,02,13,15,50,20.00
2014,02,13,15,51,13.90
2014,02,13,15,52,12.10
2014,02,13,15,53,13.70
2014,02,13,15,54,16.40
2014,02,13,15,55,14.70
2014,02,13,15,56,10.10
2014,02,13,15,57,10.00
2014,02,13,15,58,10.80
2014,02,13,15,59,9.00
2014,02,13,16,00,8.10
2014,02,13,16,01,9.50
2014,02,13,16,02,9.30
2014,02,13,16,03,5.40
2014,02,13,16,04,5.90
2014,02,13,16,05,4.70
2014,02,13,16,06,2.20
2014,02,13,16,07,3.50
2014,02,13,16,08,4.80
2014,02,13,16,09,5.10
2014,02,13,16,10,3.40
2014,02,13,16,11,2.70
2014,02,13,16,12,8.80
2014,02,13,16,13,15.70
2014,02,13,16,14,13.00
2014,02,13,16,15,11.00
2014,02,13,16,16,11.20
2014,02,13,16,17,9.70
2014,02,13,16,18,10.90
2014,02,13,16,19,12.60
2014,02,13,16,20,12.30
2014,02,13,16,21,12.40
2014,02,13,16,22,12.00
2014,02,13,16,23,11.30
2014,02,13,16,24,11.10
2014,02,13,16,25,10.90
2014,02,13,16,26,11.90
2014,02,13,16,27,15.30
2014,02,13,16,28,16.40
2014,02,13,16,29,11.40
2014,02,13,16,30,13.10
2014,02,13,16,31,10.20
2014,02,13,16,32,13.00
2014,02,13,16,33,12.70
2014,02,13,16,34,9.40
2014,02,13,16,35,10.80
2014,02,13,16,36,13.30
2014,02,13,16,37,15.40
2014,02,13,16,38,15.80
2014,02,13,16,39,15.20
2014,02,13,16,40,10.10
2014,02,13,16,41,8.30
2014,02,13,16,42,7.10
2014,02,13,16,43,8.50
2014,02,13,16,44,10.70
2014,02,13,16,45,12.60
2014,02,13,16,46,7.60
2014,02,13,16,47,9.30
2014,02,13,16,48,7.40
2014,02,13,16,49,5.10
2014,02,13,16,50,6.60
2014,02,13,16,51,2.20
2014,02,13,16,52,2.10
2014,02,13,16,53,3.70
2014,02,13,16,54,2.30
2014,02,13,16,55,2.60
2014,02,13,16,56,1.20
2014,02,13,16,57,2.40
2014,02,13,16,58,2.40
2014,02,13,16,59,4.60
2014,02,13,17,00,3.10
2014,02,13,17,01,3.10
2014,02,13,17,02,3.40
2014,02,13,17,03,1.10
2014,02,13,17,04,1.30
2014,02,13,17,05,0.60
2014,02,13,17,06,0.20
2014,02,13,17,07,0.70
2014,02,13,17,08,1.80
2014,02,13,17,09,1.40
2014,02,13,17,10,0.80
2014,02,13,17,11,0.60
2014,02,13,17,12,0.40
2014,02,13,17,13,1.20
2014,02,13,17,14,0.20
2014,02,13,17,15,0.10
2014,02,13,17,16,0.90
2014,02,13,17,17,1.40
2014,02,13,17,18,2.40
2014,02,13,17,19,4.00
2014,02,13,17,20,6.10
2014,02,13,17,21,6.00
2014,02,13,17,22,2.90
2014,02,13,17,23,4.10
2014,02,13,17,24,2.50
2014,02,13,17,25,1.80
2014,02,13,17,26,2.60
2014,02,13,17,27,1.70
2014,02,13,17,28,2.80
2014,02,13,17,29,2.40
2014,02,13,17,30,0.30
2014,02,13,17,31,1.60
2014,02,13,17,32,1.00
2014,02,13,17,33,0.00
2014,02,13,17,34,0.10
2014,02,13,17,35,0.00
2014,02,13,17,36,1.30
2014,02,13,17,37,0.20
2014,02,13,17,38,1.30
2014,02,13,17,39,0.50
2014,02,13,17,40,1.50
2014,02,13,17,41,1.20
2014,02,13,17,42,2.00
2014,02,13,17,43,5.70
2014,02,13,17,44,7.20
2014,02,13,17,45,6.40
2014,02,13,17,46,5.60
2014,02,13,17,47,6.00
2014,02,13,17,48,5.30
2014,02,13,17,49,5.20
2014,02,13,17,50,3.60
2014,02,13,17,51,4.80
2014,02,13,17,52,3.80